Content
SEND FEEDBACK

Daily
Averages
Monthly
Summary
United States of America

MANGILAO, GUAM


Home > North America > United States > Guam
Elevation: 18 meters     Latitude: 13 27N     Longitude: 144 49E

WEATHER
 
SELECT A DAY
Number of Records: 341,524;   Date Range: 1/1/95 - 7/7/14
 
SHARE

PRINT THIS DATA

[ ← Previous Day ]
WEATHER ALMANAC - 26 JANUARY, 2013
[ Next Day → ]
[ °F ]   °C
Weather ElementAverageHighLow
Temperature25.6 °C28.2 °C (1:55 pm)24.6 °C (12:55 am)
Dewpoint19.9 °C21 °C (12:29 am)17.2 °C (4:55 pm)
Humidity71 %79 % (12:55 am)55 % (4:55 pm)
Barometer1011.9 hPa1013.5 hPa (8:55 am)1009.5 hPa (3:55 pm)
Wind Speed24.9 km/h31.5 km/h (9:55 am)
Wind Gust40.7 km/h (9:54 am)
Weather ElementAverage
Visibility16.1 km
Wind DirectionNNE (35.7 °)

Weather ElementTotal
Precipitation---
Cooling Degree Days8.1 (Base 18.3)
Growing Degree Days16.4 (Base 10)
Averaged from 60 records on 26 January, 2013
WEATHER CONDITIONS BREAKOUT
WIND DIRECTION BREAKOUT
WEATHER BY HOUR - 26 JANUARY, 2013
[ °F ]   °C
Local TimeTemperatureDewpointHumidityBarometerVisibilityWind DirectionWind SpeedGust SpeedPrecipitationEventsConditions
12:24 AM25 °C20 °C74 %1011.5 hPa16.1 kmNE (40°)22.2 km/hOvercast
12:29 AM25 °C21 °C78 %1011.5 hPa16.1 kmNNE (30°)18.5 km/hOvercast
12:32 AM25 °C20 °C74 %1011.5 hPa16.1 kmNE (40°)22.2 km/hOvercast
12:55 AM24.6 °C20.8 °C79 %1011.9 hPa16.1 kmNNE (30°)13 km/hOvercast
1:55 AM24.8 °C20.8 °C78 %1011.5 hPa16.1 kmNE (40°)25.9 km/hMostly Cloudy
2:55 AM24.6 °C20.6 °C78 %1011.2 hPa16.1 kmNNE (30°)22.2 km/hMostly Cloudy
2:59 AM25 °C21 °C78 %1011.2 hPa16.1 kmNE (40°)20.4 km/hScattered Clouds
3:00 AM25 °C21 °C78 %1011.2 hPa16.1 kmNNE (30°)20.4 km/hMostly Cloudy
3:55 AM24.6 °C20.4 °C77 %1010.8 hPa16.1 kmNNE (30°)22.2 km/hMostly Cloudy
4:12 AM25 °C20 °C74 %1011.2 hPa16.1 kmNNE (30°)22.2 km/hScattered Clouds
4:16 AM25 °C20 °C74 %1011.2 hPa16.1 kmNNE (20°)25.9 km/hMostly Cloudy
4:17 AM25 °C20 °C74 %1011.2 hPa16.1 kmNNE (20°)25.9 km/hScattered Clouds
4:18 AM25 °C20 °C74 %1011.2 hPa16.1 kmNNE (20°)24.1 km/hMostly Cloudy
4:55 AM24.6 °C20.2 °C76 %1011.2 hPa16.1 kmNE (40°)25.9 km/hMostly Cloudy
4:57 AM25 °C20 °C74 %1011.2 hPa16.1 kmNNE (30°)25.9 km/hScattered Clouds
5:03 AM25 °C21 °C78 %1011.2 hPa16.1 kmNE (40°)22.2 km/hMostly Cloudy
5:06 AM25 °C20 °C74 %1011.2 hPa16.1 kmNE (40°)22.2 km/hMostly Cloudy
5:08 AM25 °C20 °C74 %1011.2 hPa16.1 kmNE (40°)29.6 km/hMostly Cloudy
5:14 AM25 °C20 °C74 %1011.2 hPa16.1 kmNE (40°)24.1 km/hMostly Cloudy
5:18 AM25 °C20 °C74 %1011.2 hPa16.1 kmNNE (30°)22.2 km/hMostly Cloudy
5:55 AM24.6 °C20.1 °C76 %1011.5 hPa16.1 kmNNE (30°)25.9 km/hMostly Cloudy
6:00 AM25 °C20 °C74 %1011.5 hPa16.1 kmNNE (30°)24.1 km/hMostly Cloudy
6:08 AM25 °C20 °C74 %1011.9 hPa16.1 kmNNE (30°)20.4 km/h35.2 km/hMostly Cloudy
6:20 AM25 °C20 °C74 %1011.9 hPa16.1 kmNNE (30°)22.2 km/hMostly Cloudy
6:21 AM25 °C20 °C74 %1011.9 hPa16.1 kmNNE (30°)20.4 km/hOvercast
6:30 AM25 °C20 °C74 %1011.9 hPa16.1 kmNE (40°)25.9 km/hMostly Cloudy
6:31 AM25 °C20 °C74 %1011.9 hPa16.1 kmNE (40°)25.9 km/hMostly Cloudy
6:55 AM24.7 °C20.4 °C77 %1011.9 hPa16.1 kmNNE (30°)24.1 km/hMostly Cloudy
7:31 AM25 °C20 °C74 %1012.5 hPa16.1 kmNNE (30°)27.8 km/hScattered Clouds
7:39 AM25 °C20 °C74 %1012.5 hPa16.1 kmNNE (30°)24.1 km/hMostly Cloudy
7:48 AM25 °C20 °C74 %1012.5 hPa16.1 kmNE (40°)24.1 km/hMostly Cloudy
7:55 AM25 °C19.9 °C73 %1012.5 hPa16.1 kmNE (40°)29.6 km/hScattered Clouds
8:52 AM27 °C20 °C65 %1013.2 hPa16.1 kmNE (40°)24.1 km/hMostly Cloudy
8:55 AM26.4 °C20.4 °C69 %1013.5 hPa16.1 kmNE (50°)25.9 km/hMostly Cloudy
9:04 AM27 °C20 °C65 %1013.5 hPa16.1 kmNNE (30°)22.2 km/hOvercast
9:05 AM27 °C20 °C65 %1013.5 hPa16.1 kmNNE (30°)24.1 km/hOvercast
9:39 AM27 °C20 °C65 %1013.2 hPa16.1 kmNNE (30°)25.9 km/hMostly Cloudy
9:48 AM27 °C20 °C65 %1013.5 hPa16.1 kmNNE (30°)27.8 km/h37 km/hMostly Cloudy
9:50 AM27 °C20 °C65 %1013.5 hPa16.1 kmNE (40°)27.8 km/h37 km/hMostly Cloudy
9:54 AM27 °C20 °C65 %1013.2 hPa16.1 kmNNE (30°)29.6 km/h40.7 km/hMostly Cloudy
9:55 AM27.1 °C20.2 °C66 %1013.2 hPa16.1 kmNNE (30°)31.5 km/h40.7 km/hMostly Cloudy
10:01 AM27 °C20 °C65 %1013.2 hPa16.1 kmNE (40°)25.9 km/h40.7 km/hMostly Cloudy
10:55 AM27.4 °C19.8 °C63 %1012.9 hPa16.1 kmNE (40°)31.5 km/hScattered Clouds
11:55 AM27.8 °C19.1 °C59 %1011.9 hPa16.1 kmNNE (30°)27.8 km/h37 km/hScattered Clouds
12:55 PM27.7 °C19.1 °C59 %1011.2 hPa16.1 kmNNE (20°)25.9 km/hScattered Clouds
1:55 PM28.2 °C19.1 °C58 %1010.2 hPa16.1 kmNE (40°)27.8 km/h37 km/hClear
2:55 PM28 °C18.4 °C56 %1009.8 hPa16.1 kmNNE (30°)25.9 km/hClear
3:55 PM27.7 °C18.4 °C57 %1009.5 hPa16.1 kmNE (40°)24.1 km/hClear
4:55 PM26.8 °C17.2 °C55 %1010.2 hPa16.1 kmNNE (30°)27.8 km/hClear
5:55 PM25.5 °C18.4 °C65 %1010.5 hPa16.1 kmNE (40°)25.9 km/h33.3 km/hPartly Cloudy
6:55 PM25 °C18.3 °C66 %1010.8 hPa16.1 kmNE (40°)24.1 km/hClear
7:55 PM24.8 °C18.8 °C69 %1011.5 hPa16.1 kmNE (50°)27.8 km/hClear
8:55 PM24.7 °C19.5 °C73 %1012.2 hPa16.1 kmNE (40°)24.1 km/hScattered Clouds
9:13 PM25 °C20 °C74 %1012.2 hPa16.1 kmNE (50°)24.1 km/hMostly Cloudy
9:20 PM25 °C20 °C74 %1012.2 hPa16.1 kmNE (50°)27.8 km/hMostly Cloudy
9:55 PM24.8 °C20 °C75 %1012.5 hPa16.1 kmNE (40°)24.1 km/hScattered Clouds
9:59 PM25 °C20 °C74 %1012.5 hPa16.1 kmNE (50°)31.5 km/hMostly Cloudy
10:28 PM25 °C20 °C74 %1012.5 hPa16.1 kmNE (40°)24.1 km/hMostly Cloudy
10:55 PM24.8 °C19.6 °C73 %1012.5 hPa16.1 kmNE (50°)25.9 km/hMostly Cloudy
11:55 PM24.7 °C19.5 °C73 %1012.5 hPa16.1 kmNE (50°)27.8 km/hScattered Clouds
Hourly data recorded from PGUA, located 0 kilometers away from Mangilao, Guam







STORIES FROM OUR PARTNERS